{"data":{"norad_id":47798,"intl_designator":"2021-018M","name":"STARLINK-2379","alt_names":[],"object_type":"PAYLOAD","status":"ACTIVE","operator":null,"country":"US","launch_date":"2021-03-11","launch_site_code":"AFETR","launch_vehicle":null,"mission":null,"orbit_class":"UNKNOWN","rcs_meters":null,"size_class":null,"mass_kg":null,"dimensions":null,"purposes":["comms"],"wikipedia_slug":null,"has_3d_model":false,"image_url":null,"decayed_at":null,"tle_current":{"epoch":"2026-05-25T00:16:18.645024Z","epoch_age_seconds":77211,"freshness":"FRESH","line1":"1 47798U 21018M   26145.01132691  .00001989  00000+0  75809-4 0  9997","line2":"2 47798  53.1580 244.1670 0001549  85.3858 274.7320 15.31712039288453","mean_motion":15.31712039,"eccentricity":0.0001549,"inclination_deg":53.158,"raan_deg":244.167,"arg_perigee_deg":85.3858,"mean_anomaly_deg":274.732,"bstar":7.5809e-5,"rev_number":28845,"period_min":94.012449033183,"perigee_km":469.64322234056,"apogee_km":471.76499331577,"semimajor_km":6848.8411078282,"source":"CELESTRAK","updated_at":"2026-05-25T13:38:16.599448Z"}}}